Probability
0 0 0 0 0 0 0 0 0 0 0 0 0 0 0 0 0 0 0 0 0 0 0 0 0 0 0 0 0 0 0 0 0 0 0 0 0 0 0 0 0 0 0 0
0 0 0 0 0 0 0 0 0 0 0 0 0 0 0 0 0 0 0 0 0 0 0 0 0 0 0 0 0 0 0 0 0 0 0 0 0 0 0 0 0 0 0 0
0 0 0 0 0 0 0 0 0 0 0 0 0 0 0 0 0 0 0 0 0 0 0 0 0 0 0 0 0 0 0 0 0 0 0 0 0 0 0 0 0 0 0 0
0 0 0 0 0 0 0 0 0 0 0 0 0 0 0 0 0 0 0 0 0 0 0 0 0 0 0 0 0 0 0 0 0 0 0 0 0 0 0 0 0 0 0 0
0 0 0 0 0 0 0 0 0 0 0 0 0 0 0 0 0 0 0 0 0 0 0 0 0 0 0 0 0 0 0 0 0 0 0 0 0 0 0 0 0 0 0 0
0 0 0 0 0 0 0 0 0 0 0 0 0 0 0 0 0 0 0 0 0 0 0 0 0 0 0 0 0 0 0 0 0 0 0 0 0 0 0 0 0 0 0 0
0 0 0 0 0 0 0 0 0 0 0 0 0 0 0 0 0 0 0 0 0 0 0 0 0 0 0 0 0 0 0 0 0 0 0 0 0 0 0 0 0 0 0 0
0 0 0 0 0 0 0 0 0 0 0 0 0 0 0 0 0 0 0 0 0 0 0 0 0 0 0 0 0 0 0 0 0 0 0 0 0 0 0 0 0 0 0 0
0 0 0 0 0 0 0 0 0 0 0 0 0 0 0 0 0 0 0 0 0 0 0 0 0 0 0 0 0 0 0 0 0 0 0 0 0 0 0 0 0 0 0 0
0 0 0 0 0 0 0 0 0 0 0 0 0 0 0 0 0 0 0 0 0 0 0 0 0 0 0 0 0 0 0 0 0 0 0 0 0 0 0 0 0 0 0 0
0 0 0 0 0 0 0 0 0 0 0 0 0 0 0 0 0 0 0 0 0 0 0 0 0 0 0 0 0 0 0 0 0 0 0 0 0 0 0 0 0 0 0 0
0 0 0 0 0 0 0 0 0 0 0 0 0 0 0 0 0 0 0 0 0 0 0 0 0 0 0 0 0 0 0 0 0 0 0 0 0 0 0 0 0 0 0 0
0 0 0 0 0 0 0 0 0 0 0 0 0 0 0 0 0 0 0 0 0 0 0 0 0 0 0 0 0 0 0 0 0 0 0 0 0 0 0 0 0 0 0 0
0 0 0 0 0 0 0 0 0 0 0 0 0 0 0 0 0 0 0 0 0 0 0 0 0 0 0 0 0 0 0 0 0 0 0 0 0 0 0 0 0 0 0 0
0 0 0 0 0 0 0 0 0 0 0 0 0 0 0 0 0 0 0 0 0 0 0 0 0 0 0 0 0 0 0 0 0 0 0 0 0 0 0 0 0 0 0 0
0 0 0 0 0 0 0 0 0 0 0 0 0 0 0 0 0 0 0 0 0 0 0 0 0 0 0 0 0 0 0 0 0 0 0 0 0 0 0 0 0 0 0 0
0 0 0 0 0 0 0 0 0 0 0 0 0 0 0 0 0 0 0 0 0 0 0 0 0 0 0 0 0 0 0 0 0 0 0 0 0 0 0 0 0 0 0 0
0 0 0 0 0 0 0 0 0 0 0 0 0 0 0 0 0 0 0 0 0 0 0 0 0 0 0 0 0 0 0 0 0 0 0 0 0 0 0 0 0 0 0 0
0 0 0 0 0 0 0 0 0 0 0 0 0 0 0 0 0 0 0 0 0 0 0 0 0 0 0 0 0 0 0 0 0 0 0 0 0 0 0 0 0 0 0 0
0 0 0 0 0 0 0 0 0 0 0 0 0 0 0 0 0 0 0 0 0 0 0 0 0 0 0 0 0 0 0 0 0 0 0 0 0 0 0 0 0 0 0 0
0 0 0 0 0 0 0 0 0 0 0 0 0 0 0 0 0 0 0 0 0 0 0 0 0 0 0 0 0 0 0 0 0 0 0 0 0 0 0 0 0 0 0 0
0 0 0 0 0 0 0 0 0 0 0 0 0 0 0 0 0 0 0 0 0 0 0 0 0 0 0 0 0 0 0 0 0 0 0 0 0 0 0 0 0 0 0 0
0 0 0 0 0 0 0 0 0 0 0 0 0 0 0 0 0 0 0 0 0 0 0 0 0 0 0 0 0 0 0 0 0 0 0 0 0 0 0 0 0 0 0 0
0 0 0 0 0 0 0 0 0 0 0 0 0 0 0 0 0 0 0 0 0 0 0 0 0 0 0 0 0 0 0 0 0 0 0 0 0 0 0 0 0 0 0 0
0 0 0 0 0 0 0 0 0 0 0 0 0 0 0 0 0 0 0 0 0 0 0 0 0 0 0 0 0 0 0 0 0 0 0 0 0 0 0 0 0 0 0 0
0 0 0 0 0 0 0 0 0 0 0 0 0 0 0 0 0 0 0 0 0 0 0 0 0 0 0 0 0 0 0 0 0 0 0 0 0 0 0 0 0 0 0 0
0 0 0 0 0 0 0 0 0 0 0 0 0 0 0 0 0 0 0 0 0 0 0 0 0 0 0 0 0 0 0 0 0 0 0 0 0 0 0 0 0 0 0 0
Height
5581 5578 5575 5572 5570 5567 5565 5562 5561 5560 5558 5556 5554 5552 5551 5551 5550 5550 5550 5550 5550 5552 5553 5555 5557 5559 5562 5564 5567 5569 5571 5574 5577 5579 5583 5586 5589 5592 5595 5598 5601 5604 5607 5611
5578 5574 5571 5569 5566 5563 5560 5558 5556 5554 5553 5550 5548 5546 5545 5544 5543 5543 5542 5542 5542 5543 5544 5545 5547 5549 5551 5553 5556 5557 5560 5562 5564 5567 5570 5573 5576 5579 5582 5585 5588 5591 5594 5598
5573 5570 5567 5565 5562 5559 5556 5554 5551 5548 5547 5544 5542 5540 5539 5537 5536 5535 5535 5535 5534 5534 5535 5535 5537 5539 5541 5542 5544 5546 5548 5550 5552 5554 5557 5560 5563 5566 5569 5572 5575 5578 5581 5585
5569 5566 5562 5562 5557 5554 5551 5549 5546 5543 5540 5538 5536 5534 5532 5530 5529 5528 5527 5526 5526 5526 5526 5526 5526 5528 5529 5531 5533 5535 5536 5538 5540 5542 5545 5548 5551 5554 5557 5560 5563 5566 5569 5572
5564 5560 5557 5556 5552 5548 5546 5544 5541 5537 5534 5532 5529 5528 5526 5523 5522 5521 5520 5518 5518 5517 5516 5516 5517 5518 5519 5521 5522 5523 5525 5527 5529 5531 5533 5536 5539 5542 5545 5547 5550 5553 5556 5558
5559 5554 5552 5551 5547 5543 5541 5539 5536 5532 5529 5526 5523 5522 5521 5517 5515 5513 5512 5510 5509 5508 5507 5507 5507 5508 5509 5510 5512 5513 5514 5516 5518 5520 5522 5524 5527 5530 5532 5535 5538 5540 5543 5546
5553 5549 5546 5545 5541 5538 5536 5534 5530 5526 5523 5519 5517 5515 5513 5510 5508 5506 5504 5503 5501 5500 5499 5498 5498 5498 5499 5500 5501 5502 5503 5505 5507 5508 5511 5513 5515 5518 5520 5523 5526 5528 5531 5534
5548 5544 5543 5538 5535 5532 5530 5526 5523 5519 5516 5513 5510 5507 5505 5503 5501 5499 5497 5495 5494 5492 5491 5489 5489 5489 5490 5490 5491 5492 5493 5494 5496 5498 5500 5502 5504 5507 5509 5511 5514 5516 5518 5521
5543 5541 5536 5531 5528 5525 5522 5519 5516 5513 5510 5507 5504 5501 5498 5496 5494 5492 5490 5488 5486 5485 5483 5482 5481 5481 5481 5481 5481 5482 5483 5484 5486 5487 5489 5491 5493 5496 5498 5500 5502 5504 5506 5509
5536 5533 5529 5525 5521 5518 5515 5512 5509 5506 5503 5500 5497 5495 5492 5489 5487 5485 5482 5480 5478 5477 5476 5475 5474 5473 5473 5473 5473 5473 5474 5475 5476 5478 5479 5481 5483 5485 5487 5489 5491 5493 5495 5498
5530 5527 5522 5518 5515 5511 5508 5505 5502 5499 5496 5493 5491 5488 5485 5482 5480 5478 5475 5473 5471 5469 5468 5467 5466 5466 5465 5465 5465 5465 5466 5466 5467 5468 5470 5471 5473 5475 5477 5479 5480 5483 5485 5486
5523 5519 5516 5512 5508 5505 5501 5498 5495 5492 5489 5486 5483 5481 5478 5475 5473 5470 5468 5466 5464 5462 5461 5460 5459 5458 5458 5457 5457 5457 5458 5458 5458 5459 5460 5462 5463 5465 5466 5469 5471 5472 5474 5476
5515 5512 5508 5505 5501 5497 5494 5491 5488 5485 5482 5479 5476 5473 5471 5468 5466 5463 5461 5459 5457 5456 5454 5453 5452 5451 5451 5450 5450 5450 5450 5450 5450 5451 5452 5453 5455 5456 5458 5460 5461 5463 5464 5466
5508 5504 5501 5497 5494 5491 5487 5484 5481 5478 5475 5472 5469 5466 5464 5461 5458 5456 5454 5452 5450 5449 5447 5446 5445 5445 5444 5443 5442 5442 5442 5442 5442 5443 5444 5445 5446 5448 5449 5451 5452 5454 5455 5457
5500 5496 5493 5490 5487 5484 5481 5478 5475 5472 5469 5466 5463 5460 5457 5454 5451 5449 5447 5445 5443 5442 5440 5439 5439 5438 5437 5436 5436 5435 5435 5435 5435 5435 5436 5437 5438 5440 5441 5442 5444 5445 5447 5448
5492 5489 5486 5483 5480 5477 5474 5471 5468 5466 5462 5459 5456 5453 5450 5447 5444 5442 5439 5437 5436 5434 5433 5432 5431 5431 5430 5429 5428 5428 5428 5428 5428 5428 5429 5429 5430 5432 5433 5434 5435 5437 5438 5439
5485 5482 5479 5476 5473 5470 5468 5465 5462 5459 5456 5452 5449 5446 5443 5440 5437 5435 5432 5430 5428 5427 5425 5424 5423 5423 5422 5421 5421 5421 5420 5420 5420 5421 5421 5422 5423 5424 5425 5426 5426 5428 5429 5430
5477 5474 5471 5469 5466 5463 5461 5458 5455 5452 5448 5445 5442 5439 5436 5433 5431 5428 5426 5423 5421 5420 5418 5416 5415 5414 5414 5413 5413 5413 5413 5413 5413 5413 5414 5415 5415 5416 5417 5418 5418 5419 5420 5421
5470 5467 5464 5461 5458 5456 5453 5450 5447 5444 5441 5438 5435 5432 5429 5426 5424 5421 5419 5417 5414 5412 5411 5409 5407 5406 5406 5405 5405 5405 5405 5405 5405 5406 5406 5407 5408 5409 5409 5410 5411 5411 5412 5413
5463 5460 5457 5454 5451 5448 5446 5443 5440 5437 5434 5431 5428 5425 5422 5419 5417 5414 5412 5409 5407 5405 5403 5401 5400 5398 5398 5397 5397 5397 5397 5398 5398 5398 5399 5400 5401 5401 5402 5402 5403 5403 5404 5405
5456 5452 5449 5446 5443 5440 5438 5435 5432 5429 5426 5423 5421 5418 5415 5412 5410 5407 5405 5403 5400 5398 5396 5394 5393 5391 5391 5390 5390 5390 5390 5390 5391 5391 5392 5393 5393 5394 5394 5395 5395 5395 5396 5396
5448 5445 5442 5438 5435 5433 5430 5427 5424 5421 5418 5416 5413 5410 5408 5405 5403 5400 5397 5395 5393 5391 5389 5387 5386 5385 5384 5383 5383 5383 5383 5384 5384 5384 5385 5386 5386 5387 5387 5387 5387 5387 5388 5388
5441 5437 5434 5431 5428 5425 5422 5419 5416 5413 5410 5408 5405 5403 5400 5398 5395 5393 5391 5388 5386 5384 5382 5380 5379 5378 5377 5377 5377 5377 5377 5377 5377 5377 5378 5378 5379 5379 5379 5379 5379 5379 5380 5380
5432 5429 5426 5423 5420 5417 5414 5411 5408 5405 5402 5400 5397 5395 5392 5390 5388 5385 5383 5381 5379 5377 5375 5374 5372 5372 5371 5370 5370 5370 5370 5370 5370 5370 5371 5371 5371 5371 5371 5371 5371 5371 5372 5372
5424 5421 5418 5415 5412 5409 5406 5403 5400 5397 5395 5392 5389 5387 5384 5382 5380 5378 5376 5374 5372 5370 5368 5367 5366 5365 5364 5364 5363 5363 5363 5363 5363 5363 5363 5363 5363 5363 5363 5363 5363 5363 5363 5363
5415 5412 5409 5406 5404 5401 5398 5395 5393 5390 5387 5384 5382 5379 5377 5374 5372 5370 5368 5366 5365 5363 5361 5360 5359 5358 5357 5356 5356 5355 5355 5355 5355 5355 5355 5355 5355 5355 5355 5355 5355 5355 5355 5355
5407 5404 5401 5398 5395 5393 5390 5387 5384 5382 5379 5376 5374 5371 5369 5367 5365 5363 5361 5359 5357 5356 5354 5353 5351 5350 5349 5348 5348 5347 5347 5347 5347 5347 5347 5347 5347 5347 5347 5347 5347 5347 5347 5347
Wind_Speed
24 23 22 22 22 21 22 22 23 23 23 23 24 24 25 26 27 28 29 31 33 34 37 39 42 43 43 43 44 46 47 48 49 49 49 49 49 49 50 50 50 51 50 49
23 23 23 23 23 23 23 24 24 24 24 24 24 24 24 25 25 26 28 30 31 33 36 37 40 42 43 43 43 45 46 47 48 49 49 49 48 49 49 49 49 49 49 48
24 23 23 23 24 24 25 25 25 24 24 25 25 24 25 25 26 26 27 28 30 32 34 37 39 41 42 43 44 44 45 46 46 47 47 47 47 47 47 47 48 49 48 48
26 25 24 24 24 24 25 25 25 25 25 25 25 24 25 26 26 26 26 27 29 31 33 35 37 38 39 41 43 44 44 44 45 45 46 46 46 46 46 46 47 47 47 47
27 27 26 25 25 24 24 24 25 26 26 25 24 25 26 26 26 27 27 28 28 30 32 34 36 37 38 39 40 41 42 43 43 44 44 44 44 45 46 46 46 46 46 45
28 28 28 26 26 25 25 25 25 26 26 25 25 25 25 26 27 27 27 28 28 29 31 32 33 34 35 36 38 39 40 41 41 42 42 42 42 43 44 45 45 44 44 44
28 28 28 28 27 26 26 26 25 26 26 26 25 26 26 26 26 26 27 28 28 28 29 30 31 32 33 34 36 37 38 39 40 40 41 41 41 41 41 42 43 43 43 44
28 29 28 28 27 27 27 27 26 27 27 26 25 25 25 26 25 25 26 26 27 27 27 28 28 30 31 32 33 34 36 37 38 38 39 40 39 40 40 40 41 42 43 43
29 29 29 29 29 29 28 28 27 27 27 26 25 24 24 25 26 25 25 26 26 26 26 27 27 28 29 30 31 33 33 34 36 37 37 36 37 39 39 39 40 40 41 42
29 29 29 29 29 29 29 29 28 28 27 26 25 25 25 25 25 25 25 25 25 25 25 26 26 27 27 28 29 30 31 32 33 35 36 37 37 36 37 38 39 39 39 40
30 30 29 28 28 28 28 28 28 27 27 26 26 26 26 26 26 25 25 24 24 24 24 24 25 25 26 26 27 28 29 30 32 33 35 35 36 36 36 36 37 37 38 39
31 30 29 28 27 28 27 27 27 26 26 26 26 26 26 26 26 25 25 25 24 24 23 23 24 24 25 25 26 26 27 28 30 31 33 34 34 34 35 36 35 35 35 36
31 30 28 28 28 27 27 26 26 25 25 26 26 26 26 26 26 25 25 25 24 23 23 23 23 23 23 24 25 25 26 27 28 29 30 31 32 32 33 33 34 34 34 34
30 29 28 28 27 27 26 25 25 25 25 25 26 26 26 26 25 25 25 24 24 23 23 23 22 23 23 23 23 23 24 25 25 26 27 28 28 29 30 30 31 31 31 32
30 29 28 27 26 26 26 25 25 25 25 25 26 26 26 26 25 25 25 25 24 24 23 23 23 23 23 23 23 23 22 23 23 23 24 26 27 28 29 29 29 30 31 31
29 28 27 26 26 26 26 25 25 25 25 26 26 26 26 26 25 25 25 24 24 24 24 24 23 23 24 24 24 24 23 23 23 23 24 24 25 26 27 28 29 30 30 31
27 27 26 26 26 26 26 26 25 25 25 26 26 26 26 26 25 25 24 24 24 23 23 24 24 24 24 24 25 24 24 24 24 24 24 25 25 25 26 26 28 29 30 31
27 27 27 26 26 26 26 26 26 26 26 26 26 26 25 25 25 24 24 23 23 23 23 24 24 24 24 24 24 24 24 24 24 24 24 25 25 25 26 26 27 27 28 29
28 28 27 27 27 27 26 26 26 26 26 26 26 26 25 24 24 24 23 23 23 23 23 23 24 24 24 24 24 24 24 24 24 24 24 25 25 25 26 26 26 27 27 28
28 28 28 28 28 27 27 27 27 27 27 26 26 25 25 24 25 24 24 23 23 23 23 22 22 23 23 23 23 23 23 23 23 23 23 24 24 24 24 25 25 25 26 27
29 29 29 28 28 28 28 28 27 27 27 26 26 25 25 25 25 24 24 23 23 23 22 22 21 21 22 22 22 22 22 22 22 23 23 23 23 23 23 24 24 25 25 26
29 29 29 28 28 28 28 29 28 27 27 26 26 26 26 25 25 24 23 23 23 22 22 22 21 21 21 21 21 21 21 21 21 22 23 23 23 23 23 24 24 24 25 25
30 29 29 28 28 28 28 29 28 28 27 27 26 26 26 26 25 24 24 23 23 22 22 22 22 21 21 21 20 21 21 21 22 22 23 23 23 24 24 24 24 23 24 24
30 29 29 28 28 28 28 28 28 28 27 26 26 26 26 26 25 25 24 23 23 23 22 22 22 22 22 21 21 21 21 22 22 23 23 23 23 24 24 24 24 24 24 24
30 29 29 28 28 28 28 28 27 27 27 27 26 27 26 26 25 25 24 24 24 23 23 22 22 22 22 22 22 22 22 22 23 23 23 23 24 24 24 24 24 24 24 24
30 29 29 28 28 28 28 28 27 27 27 27 27 27 26 26 25 25 25 24 24 24 24 23 23 22 22 23 23 23 23 23 23 23 23 24 24 24 24 24 24 24 23 23
29 29 28 27 27 27 27 28 28 28 27 27 26 26 26 25 25 25 24 24 24 24 24 23 23 23 23 23 23 24 23 23 24 24 24 24 24 24 24 24 24 24 23 23
Wind_Direction
313 307 302 303 302 299 298 296 292 291 289 289 285 283 279 277 275 272 268 265 262 258 255 253 251 250 249 249 249 249 249 249 250 250 250 250 249 249 250 250 250 249 249 249
315 310 304 302 301 299 300 300 297 293 291 290 288 283 280 277 276 275 271 267 265 261 257 255 254 252 251 251 251 252 251 251 250 250 250 250 249 250 250 250 250 251 251 250
317 313 310 308 304 300 300 301 299 297 295 291 287 285 281 279 278 277 273 271 267 264 261 258 257 255 254 253 252 252 252 251 252 252 250 249 249 250 251 252 252 252 253 252
316 313 312 312 308 304 302 302 301 300 297 294 289 286 284 281 280 278 276 273 269 266 263 261 259 258 256 255 254 253 252 251 252 252 250 250 250 250 250 252 252 252 253 253
314 312 311 312 310 306 304 304 303 303 301 297 291 285 284 284 281 279 277 276 272 270 267 263 261 259 258 257 256 254 254 253 252 250 249 250 250 251 251 252 252 252 252 253
311 310 311 311 309 307 305 304 305 304 301 299 293 289 287 286 283 281 278 278 276 274 271 268 265 261 258 258 257 256 255 254 252 250 249 250 251 251 251 252 252 252 252 252
308 309 310 309 309 307 305 305 305 304 302 300 295 292 290 289 286 284 281 280 279 277 275 270 267 264 261 259 258 257 256 255 252 251 250 250 250 250 250 251 251 251 252 252
309 309 310 308 306 306 305 304 304 303 303 301 298 295 292 290 289 286 284 282 281 278 276 272 267 265 264 262 259 258 257 255 253 251 251 250 250 250 251 252 252 253 253 252
310 309 308 305 303 303 303 303 303 302 301 300 299 298 296 292 289 287 285 284 282 279 277 273 270 268 266 265 262 260 258 257 254 252 252 251 252 252 253 254 255 255 255 254
309 309 307 305 303 301 302 302 302 301 299 298 298 298 297 294 291 289 288 285 282 280 278 273 272 270 268 265 264 263 260 257 255 254 253 253 253 253 253 254 255 255 255 254
308 307 306 305 303 302 301 302 301 300 298 296 296 296 296 294 292 291 290 288 285 283 280 275 272 270 268 267 265 264 262 258 257 256 255 254 254 254 255 255 256 256 255 255
306 306 305 305 304 303 302 301 301 300 299 298 296 295 294 293 292 290 290 288 287 285 282 279 275 272 270 268 266 265 264 261 258 257 256 255 255 255 255 254 254 255 256 256
304 304 304 305 304 304 303 302 302 302 302 301 299 297 295 293 292 290 290 289 287 284 282 281 278 276 273 271 269 267 266 265 263 260 257 255 254 253 254 254 255 256 258 258
302 302 302 303 302 303 303 303 303 303 303 303 302 300 298 295 293 291 290 288 287 284 280 279 279 278 276 275 272 269 267 266 265 261 257 255 254 253 254 255 256 256 257 259
302 301 301 301 301 301 302 303 304 304 303 303 302 302 301 298 294 292 290 288 286 283 280 278 277 277 277 276 274 272 269 267 265 263 260 258 255 254 255 256 256 257 258 259
302 302 301 300 300 300 300 301 303 303 303 302 301 301 301 300 298 294 292 290 287 283 280 278 278 276 275 275 274 273 271 269 265 263 262 260 259 258 259 259 257 257 259 260
303 302 301 300 299 299 300 301 302 303 303 302 302 301 301 299 298 295 293 291 289 286 282 280 278 277 276 276 274 273 271 269 267 265 263 261 260 260 261 261 260 259 259 259
303 302 301 300 300 299 299 300 301 302 302 302 302 302 302 300 298 296 294 292 290 288 285 282 279 278 276 275 274 273 270 269 267 265 263 262 262 262 262 263 262 261 260 259
302 302 301 300 300 300 300 300 301 301 302 302 302 302 301 300 299 298 296 293 291 289 287 284 280 278 276 275 274 272 271 269 268 266 264 263 263 263 263 263 263 262 260 259
304 302 301 300 300 300 300 301 302 301 301 301 301 301 300 299 298 298 298 295 292 290 288 286 283 279 276 275 274 272 271 270 267 264 263 263 263 264 264 263 263 263 261 260
305 303 301 300 299 299 299 300 301 301 301 300 299 299 299 299 298 298 297 295 293 290 288 286 283 280 278 276 274 272 271 269 266 264 263 263 265 266 266 265 265 264 263 262
305 304 302 302 301 300 300 300 300 299 299 298 298 298 298 298 298 298 297 295 293 290 287 285 283 281 278 277 275 272 270 268 266 264 263 264 265 267 267 267 267 266 264 263
304 303 303 303 302 301 301 302 302 300 298 296 296 297 297 297 297 296 295 295 293 291 288 284 281 279 278 278 276 272 270 268 266 265 265 266 267 268 269 269 268 267 265 264
302 302 302 302 302 301 301 301 302 302 300 298 297 297 296 296 296 296 294 293 292 290 287 284 281 279 277 276 275 273 271 269 268 267 268 268 268 269 269 269 269 269 268 266
302 301 301 301 301 301 301 301 301 301 301 300 299 298 298 296 294 293 292 291 291 291 288 284 281 278 277 275 274 274 273 271 269 268 268 268 269 269 270 271 271 270 268 267
304 303 301 301 300 300 300 300 300 300 301 300 299 298 297 296 294 292 291 290 289 290 288 285 281 278 277 275 274 275 274 273 271 269 269 269 269 269 269 270 270 270 269 268
304 303 302 302 302 302 301 300 299 299 299 299 298 298 297 296 294 293 291 291 290 290 288 286 283 280 278 277 276 275 275 273 272 272 271 270 270 270 269 268 269 269 269 268